Location: Torrington
(42.0650°N, 104.1810°W)
Time: 22:23:36
(UTC-06:00)

Amateur Radio Satellites - All Passes

Search period start: 01 October 2014 21:53
Search period end: 02 October 2014 21:53
Location: Torrington, 42.0650°N, 104.1810°W

Satellite Date Start Highest point End Downlink Frequencies (MHz)
Time Altitude Azimuth
KITSAT 1 01 Oct 21:55:40 21:58:22 12° 358° (N) 22:01:03 435.175 FM
UKube-1 01 Oct 21:56:34 22:00:51 62° 258° (WSW) 22:05:11 145.840 MHz, 145.915 MHz
Saudisat 1A 01 Oct 22:00:28 22:04:20 28° 46° (NE) 22:08:09 436.775 MHz
UOSAT-12 01 Oct 22:21:51 22:25:56 29° 314° (NW) 22:30:05 437.025 FM, 437.400 FM
ZACube-1 01 Oct 22:37:39 22:42:11 74° 258° (WSW) 22:46:50 437.345 MHz
HO-68 01 Oct 23:00:47 23:04:26 15° 272° (W) 23:08:06 435.675 MHz FM
Oscar 11 01 Oct 23:04:17 23:07:02 16° 268° (W) 23:09:49 145.825 FM, Beacon 2401.500 USB
ISS 01 Oct 23:26:15 23:29:17 32° 336° (NNW) 23:32:20 145.800 FM
FUNcube-1 01 Oct 23:29:49 23:33:21 22° 267° (W) 23:36:57 145.950 - 145.970 MHz USB
Saudisat 1A 01 Oct 23:39:55 23:43:56 35° 244° (WSW) 23:47:56 436.775 MHz
KITSAT 1 01 Oct 23:52:12 23:57:46 19° 29° (NNE) 00:03:17 435.175 FM
RS-15 02 Oct 00:38:54 00:45:56 20° 99° (E) 00:52:52 29.354 - 29.394 USB, Beacon 29.352 USB
ISS 02 Oct 01:04:34 01:06:44 16° 356° (N) 01:08:53 145.800 FM
Oscar 19 02 Oct 01:27:56 01:31:24 18° 92° (E) 01:34:50 437.125 CW, 437.150 USB
Uribyol 2 02 Oct 01:44:30 01:45:39 11° 88° (E) 01:46:47 436.500 FM
KITSAT 1 02 Oct 01:47:00 01:55:00 61° 54° (NE) 02:02:57 435.175 FM
JAS-1B 02 Oct 01:51:37 01:55:42 20° 93° (E) 02:00:00 435.800 - 435.900 CW/SSB
Oscar 16 02 Oct 02:08:07 02:13:03 44° 99° (E) 02:17:56 437.025 USB, Beacon 2401.1428
AO-Echo 02 Oct 02:10:14 02:14:16 24° 94° (E) 02:18:21 ?
AO-27 02 Oct 02:20:00 02:24:12 24° 94° (E) 02:28:23 436.795 MHz FM
ISS 02 Oct 02:41:41 02:44:19 21° 16° (NNE) 02:46:57 145.800 FM
RS-15 02 Oct 02:45:28 02:56:31 84° 120° (ESE) 03:07:28 29.354 - 29.394 USB, Beacon 29.352 USB
Gurwin Techsat 1B 02 Oct 02:50:21 02:54:31 23° 93° (E) 02:58:40 435.225 FM
Oscar 19 02 Oct 03:06:04 03:11:05 55° 288° (WNW) 03:16:04 437.125 CW, 437.150 USB
SO-50 02 Oct 03:08:28 03:12:43 30° 46° (NE) 03:16:59 436.795 FM
TMSAT-1 02 Oct 03:17:59 03:22:39 30° 96° (E) 03:27:17 436.925 FM
ITAMSAT 1 02 Oct 03:19:55 03:25:11 84° 104° (ESE) 03:30:25 435.822 SSB
Uribyol 2 02 Oct 03:20:32 03:25:49 90° 279° (W) 03:31:02 436.500 FM
JAS-1B 02 Oct 03:41:12 03:46:45 56° 289° (WNW) 03:52:44 435.800 - 435.900 CW/SSB
KITSAT 1 02 Oct 03:43:04 03:49:55 32° 253° (WSW) 03:56:46 435.175 FM
AO-7 02 Oct 03:45:31 03:50:26 17° 89° (E) 03:55:20 29.400 - 29.500 MHz
Oscar 16 02 Oct 03:48:04 03:52:07 24° 296° (WNW) 03:56:08 437.025 USB, Beacon 2401.1428
AO-Echo 02 Oct 03:48:25 03:53:09 42° 290° (WNW) 03:58:00 ?
AO-27 02 Oct 03:58:56 04:03:52 43° 291° (WNW) 04:08:47 436.795 MHz FM
ISS 02 Oct 04:18:03 04:21:24 86° 34° (NE) 04:24:43 145.800 FM
OPAL 02 Oct 04:28:13 04:33:16 52° 69° (ENE) 04:38:19 ?
Gurwin Techsat 1B 02 Oct 04:29:38 04:34:41 46° 290° (WNW) 04:39:44 435.225 FM
MaSat-1 02 Oct 04:48:16 04:52:14 26° 107° (ESE) 04:56:05 437.345 MHz
SO-50 02 Oct 04:48:52 04:53:22 39° 244° (WSW) 04:57:53 436.795 FM
TMSAT-1 02 Oct 04:57:47 05:02:34 35° 292° (WNW) 05:07:20 436.925 FM
RS-15 02 Oct 05:00:28 05:10:11 35° 326° (NNW) 05:19:58 29.354 - 29.394 USB, Beacon 29.352 USB
ITAMSAT 1 02 Oct 05:01:24 05:03:57 14° 301° (WNW) 05:06:30 435.822 SSB
Uribyol 2 02 Oct 05:02:15 05:04:30 13° 302° (WNW) 05:06:45 436.500 FM
JAS-2 02 Oct 05:02:28 05:05:42 14° 88° (E) 05:09:03 435.800 - 435.900 CW/SSB, 435.910 FM
UOSAT-12 02 Oct 05:10:28 05:14:55 38° 49° (NE) 05:19:17 437.025 FM, 437.400 FM
Uosat F 02 Oct 05:10:37 05:15:35 56° 101° (E) 05:20:31 435.120 FM
STRAND 1 02 Oct 05:33:52 05:36:59 17° 61° (ENE) 05:40:06 ?
AO-7 02 Oct 05:35:59 05:44:20 85° 108° (ESE) 05:52:39 29.400 - 29.500 MHz
ISS 02 Oct 05:56:31 05:57:37 11° 231° (SW) 05:58:42 145.800 FM
OPAL 02 Oct 06:08:36 06:12:24 20° 265° (W) 06:16:14 ?
MaSat-1 02 Oct 06:24:02 06:28:33 38° 302° (WNW) 06:32:49 437.345 MHz
JAS-2 02 Oct 06:44:41 06:51:27 79° 103° (ESE) 06:58:58 435.800 - 435.900 CW/SSB, 435.910 FM
Uosat F 02 Oct 06:50:27 06:53:56 19° 298° (WNW) 06:57:24 435.120 FM
UOSAT-12 02 Oct 06:50:56 06:54:54 27° 247° (WSW) 06:58:48 437.025 FM, 437.400 FM
Hamsat 02 Oct 06:51:44 06:55:57 81° 102° (ESE) 07:00:07 145.90 MHz
STRAND 1 02 Oct 07:10:33 07:15:36 67° 258° (WSW) 07:20:43 ?
RS-15 02 Oct 07:19:15 07:27:08 22° 1° (N) 07:35:08 29.354 - 29.394 USB, Beacon 29.352 USB
AO-7 02 Oct 07:30:01 07:36:10 24° 308° (NW) 07:42:20 29.400 - 29.500 MHz
SO-67 02 Oct 08:12:53 08:16:21 78° 284° (WNW) 08:19:47 435.3500 MHz FM
Sapphire 02 Oct 08:13:13 08:16:01 14° 103° (ESE) 08:18:50 437.095 MHz 1200 baud AX-25 AFSK
JAS-2 02 Oct 08:31:06 08:35:55 22° 299° (WNW) 08:41:05 435.800 - 435.900 CW/SSB, 435.910 FM
PCSat 02 Oct 08:36:45 08:41:10 26° 108° (ESE) 08:45:35 145.825 MHz
HO-68 02 Oct 08:37:31 08:42:05 18° 90° (E) 08:46:37 435.675 MHz FM
RS-15 02 Oct 09:33:59 09:43:59 37° 35° (NE) 09:54:15 29.354 - 29.394 USB, Beacon 29.352 USB
UKube-1 02 Oct 09:45:01 09:48:21 21° 94° (E) 09:51:41 145.840 MHz, 145.915 MHz
Sapphire 02 Oct 09:53:19 09:58:43 78° 300° (WNW) 10:04:10 437.095 MHz 1200 baud AX-25 AFSK
PCSat 02 Oct 10:19:06 10:24:18 46° 306° (NW) 10:29:32 145.825 MHz
HO-68 02 Oct 10:23:21 10:30:35 84° 288° (WNW) 10:37:46 435.675 MHz FM
ZACube-1 02 Oct 10:27:25 10:30:56 22° 93° (E) 10:34:22 437.345 MHz
Oscar 11 02 Oct 10:49:31 10:53:52 89° 102° (ESE) 10:58:11 145.825 FM, Beacon 2401.500 USB
FUNcube-1 02 Oct 11:17:25 11:21:59 74° 102° (ESE) 11:26:24 145.950 - 145.970 MHz USB
UKube-1 02 Oct 11:20:39 11:24:38 35° 291° (WNW) 11:28:36 145.840 MHz, 145.915 MHz
Sapphire 02 Oct 11:39:55 11:43:04 15° 321° (NW) 11:46:14 437.095 MHz 1200 baud AX-25 AFSK
RS-15 02 Oct 11:46:24 11:57:33 80° 241° (WSW) 12:09:10 29.354 - 29.394 USB, Beacon 29.352 USB
ZACube-1 02 Oct 12:03:16 12:07:27 36° 290° (WNW) 12:11:31 437.345 MHz
PCSat 02 Oct 12:08:28 12:09:09 10° 328° (NNW) 12:09:49 145.825 MHz
HO-68 02 Oct 12:12:47 12:17:16 18° 307° (NW) 12:21:44 435.675 MHz FM
JAS-1B 02 Oct 12:37:55 12:43:10 23° 62° (ENE) 12:47:53 435.800 - 435.900 CW/SSB
Oscar 19 02 Oct 12:44:57 12:49:20 28° 66° (ENE) 12:53:43 437.125 CW, 437.150 USB
FUNcube-1 02 Oct 12:55:54 12:57:43 12° 299° (WNW) 12:59:30 145.950 - 145.970 MHz USB
ITAMSAT 1 02 Oct 13:01:16 13:04:39 18° 61° (ENE) 13:08:04 435.822 SSB
Uribyol 2 02 Oct 13:01:32 13:05:07 19° 62° (ENE) 13:08:43 436.500 FM
AO-Echo 02 Oct 13:24:00 13:28:02 30° 67° (ENE) 13:32:08 ?
Oscar 16 02 Oct 13:25:21 13:30:30 68° 73° (ENE) 13:35:40 437.025 USB, Beacon 2401.1428
AO-27 02 Oct 13:38:27 13:43:12 38° 68° (ENE) 13:47:59 436.795 MHz FM
Saudisat 1A 02 Oct 13:46:10 13:50:25 53° 119° (ESE) 13:54:44 436.775 MHz
RS-15 02 Oct 14:01:09 14:08:09 19° 261° (W) 14:15:20 29.354 - 29.394 USB, Beacon 29.352 USB
Gurwin Techsat 1B 02 Oct 14:11:41 14:16:32 38° 68° (ENE) 14:21:25 435.225 FM
Oscar 19 02 Oct 14:23:45 14:28:31 37° 263° (W) 14:33:19 437.125 CW, 437.150 USB
JAS-1B 02 Oct 14:25:55 14:33:28 67° 257° (WSW) 14:39:49 435.800 - 435.900 CW/SSB
ITAMSAT 1 02 Oct 14:38:31 14:43:38 62° 258° (WSW) 14:48:48 435.822 SSB
MaSat-1 02 Oct 14:38:37 14:41:50 40° 58° (ENE) 14:44:37 437.345 MHz
Uribyol 2 02 Oct 14:39:01 14:44:07 58° 259° (W) 14:49:16 436.500 FM
TMSAT-1 02 Oct 14:39:03 14:44:08 49° 71° (ENE) 14:49:14 436.925 FM
AO-7 02 Oct 14:44:47 14:51:26 28° 55° (NE) 14:58:04 29.400 - 29.500 MHz
Uosat F 02 Oct 14:50:14 14:51:18 11° 57° (ENE) 14:52:23 435.120 FM
Oscar 10/S400 02 Oct 14:56:06 15:12:51 32° 149° (SSE) 15:33:30 145.825 - 145.975 CW/USB, Beacon 145.810 USB
AO-Echo 02 Oct 15:02:44 15:06:47 29° 264° (W) 15:10:53 ?
Oscar 16 02 Oct 15:07:25 15:10:19 15° 270° (W) 15:13:14 437.025 USB, Beacon 2401.1428
AO-27 02 Oct 15:18:28 15:22:47 27° 265° (W) 15:27:10 436.795 MHz FM
Saudisat 1A 02 Oct 15:26:57 15:30:18 21° 317° (NW) 15:33:40 436.775 MHz
Gurwin Techsat 1B 02 Oct 15:52:04 15:56:34 28° 265° (W) 16:01:06 435.225 FM
KITSAT 1 02 Oct 16:16:04 16:23:20 38° 109° (ESE) 16:30:36 435.175 FM
TMSAT-1 02 Oct 16:20:20 16:24:18 21° 267° (W) 16:28:18 436.925 FM
Uosat F 02 Oct 16:24:15 16:29:14 81° 74° (ENE) 16:34:16 435.120 FM
AO-7 02 Oct 16:35:14 16:43:30 73° 254° (WSW) 16:51:49 29.400 - 29.500 MHz
OPAL 02 Oct 16:40:09 16:42:03 12° 91° (E) 16:43:57 ?
Sapphire 02 Oct 16:58:39 17:02:12 17° 41° (NE) 17:05:45 437.095 MHz 1200 baud AX-25 AFSK
JAS-2 02 Oct 16:59:14 17:03:43 30° 65° (ENE) 17:08:28 435.800 - 435.900 CW/SSB, 435.910 FM
PCSat 02 Oct 17:23:31 17:28:04 26° 47° (NE) 17:32:35 145.825 MHz
Hamsat 02 Oct 17:45:05 17:49:20 60° 74° (ENE) 17:53:35 145.90 MHz
Uosat F 02 Oct 18:06:59 18:08:37 12° 271° (W) 18:10:16 435.120 FM
KITSAT 1 02 Oct 18:10:39 18:18:29 53° 309° (NW) 18:26:23 435.175 FM
OPAL 02 Oct 18:16:25 18:21:32 80° 288° (WNW) 18:26:33 ?
AO-7 02 Oct 18:34:08 18:37:39 13° 273° (W) 18:41:10 29.400 - 29.500 MHz
Sapphire 02 Oct 18:40:56 18:46:24 90° 59° (ENE) 18:51:50 437.095 MHz 1200 baud AX-25 AFSK
JAS-2 02 Oct 18:44:10 18:48:48 33° 265° (W) 18:53:41 435.800 - 435.900 CW/SSB, 435.910 FM
SO-67 02 Oct 18:46:06 18:49:13 33° 72° (ENE) 18:52:22 435.3500 MHz FM
SO-50 02 Oct 19:03:48 19:08:13 63° 120° (ESE) 19:12:46 436.795 FM
PCSat 02 Oct 19:06:30 19:11:46 52° 246° (WSW) 19:16:59 145.825 MHz
HO-68 02 Oct 19:08:20 19:12:19 16° 52° (NE) 19:16:19 435.675 MHz FM
STRAND 1 02 Oct 19:20:50 19:25:41 40° 98° (E) 19:30:30 ?
Hamsat 02 Oct 19:23:54 19:25:39 12° 270° (W) 19:27:25 145.90 MHz
OPAL 02 Oct 19:58:04 19:59:33 11° 306° (NW) 20:01:01 ?
KITSAT 1 02 Oct 20:10:55 20:16:01 18° 334° (NNW) 20:21:09 435.175 FM
SO-67 02 Oct 20:20:35 20:22:21 13° 268° (W) 20:24:08 435.3500 MHz FM
PANSAT 02 Oct 20:25:34 20:26:27 11° 177° (S) 20:27:20 not established
Sapphire 02 Oct 20:27:01 20:28:59 12° 258° (WSW) 20:30:57 437.095 MHz 1200 baud AX-25 AFSK
UKube-1 02 Oct 20:41:16 20:44:28 21° 65° (ENE) 20:47:41 145.840 MHz, 145.915 MHz
SO-50 02 Oct 20:45:53 20:49:12 20° 319° (NW) 20:52:36 436.795 FM
HO-68 02 Oct 20:51:46 20:58:52 76° 71° (ENE) 21:06:03 435.675 MHz FM
STRAND 1 02 Oct 21:00:26 21:04:39 26° 295° (WNW) 21:08:52 ?
ISS 02 Oct 21:00:57 21:03:34 22° 134° (SE) 21:06:11 145.800 FM
UOSAT-12 02 Oct 21:01:28 21:06:05 83° 122° (ESE) 21:10:50 437.025 FM, 437.400 FM
ZACube-1 02 Oct 21:24:32 21:27:52 20° 65° (ENE) 21:31:14 437.345 MHz
Oscar 11 02 Oct 21:44:38 21:48:58 73° 75° (ENE) 21:53:20 145.825 FM, Beacon 2401.500 USB
